Sherman-Denison, TX

8:38 AM CDT on June 28, 2017 (GMT -0500)
Sherman-Denison

Weather History for KGYI - October, 2013

Change the Weather History Date:

Tuesday, October 8, 2013

  Actual Average (KDFW) Record (KDFW)
Temperature  
Mean Temperature 66 °F -  
Max Temperature 80 °F 78 °F 96 °F (1979)
Min Temperature 52 °F 58 °F 39 °F (1921)
Growing Degree Days 16 (Base 50)    
Moisture  
Dew Point 46 °F    
Average Humidity 49    
Maximum Humidity 72    
Minimum Humidity 27    
Precipitation  
Precipitation 0.00 in - - ()
Sea Level Pressure  
Sea Level Pressure 30.08 in    
Wind  
Wind Speed 7 mph (ESE)    
Max Wind Speed 13 mph    
Max Gust Speed 20 mph    
Visibility 10 miles    
Events      
Averages and records for this station are not official NWS values.
T = Trace of Precipitation, MM = Missing Value Source: NWS Daily Summary

Daily Weather History Graph

Daily Weather History Graph

Search for Another Location

Airport or City:

Trip Planner

Search our weather history database for the weather conditions in past years. The results will help you decide how hot, cold, wet, or windy it might be!

Date:

Astronomy

Oct. 08, 2013 Rise Set
Actual Time 7:26 AM CDT 7:01 PM CDT
Civil Twilight 7:01 AM CDT 7:26 PM CDT
Nautical Twilight 6:32 AM CDT 7:55 PM CDT
Astronomical Twilight 6:03 AM CDT 8:23 PM CDT
Moon 11:11 AM CDT (10/8) 9:49 PM CDT (10/8)
Length of Visible Light 12h 24m
Length of Day
11h 34m
Waxing Crescent, 16% of the Moon is Illuminated
Oct 8
Waxing Crescent
Oct 11
First Quarter
Oct 18
Full
Oct 26
Last Quarter
Nov 3
New

Hourly Weather History & Observations

Time (CDT) Temp. Dew Point Humidity Pressure Visibility Wind Dir Wind Speed Gust Speed Precip Events Conditions
12:15 AM 59.7 °F 40.3 °F 49% 30.11 in 10.0 mi East 6.9 mph - N/A   Clear
12:35 AM 60.1 °F 39.7 °F 47% 30.11 in 10.0 mi East 6.9 mph - N/A   Clear
12:55 AM 59.9 °F 40.1 °F 48% 30.10 in 10.0 mi East 6.9 mph - N/A   Clear
1:15 AM 59.2 °F 40.1 °F 49% 30.11 in 10.0 mi East 5.8 mph - N/A   Clear
1:35 AM 59.0 °F 40.6 °F 51% 30.11 in 10.0 mi East 6.9 mph - N/A   Clear
1:55 AM 59.0 °F 41.2 °F 52% 30.11 in 10.0 mi East 5.8 mph - N/A   Clear
2:15 AM 58.5 °F 41.5 °F 53% 30.11 in 10.0 mi East 5.8 mph - N/A   Clear
2:35 AM 58.1 °F 41.9 °F 55% 30.11 in 10.0 mi East 5.8 mph - N/A   Clear
2:55 AM 57.4 °F 42.1 °F 57% 30.10 in 10.0 mi East 4.6 mph - N/A   Clear
3:15 AM 57.4 °F 42.1 °F 57% 30.10 in 10.0 mi East 4.6 mph - N/A   Clear
3:35 AM 57.4 °F 42.1 °F 57% 30.10 in 10.0 mi East 5.8 mph - N/A   Clear
3:55 AM 57.2 °F 42.3 °F 57% 30.10 in 10.0 mi East 5.8 mph - N/A   Clear
4:15 AM 56.7 °F 42.8 °F 60% 30.10 in 10.0 mi East 5.8 mph - N/A   Clear
4:35 AM 56.7 °F 43.0 °F 60% 30.10 in 10.0 mi East 6.9 mph - N/A   Clear
4:55 AM 56.7 °F 43.0 °F 60% 30.10 in 10.0 mi East 5.8 mph - N/A   Clear
5:15 AM 56.3 °F 43.2 °F 61% 30.10 in 10.0 mi East 4.6 mph - N/A   Clear
5:35 AM 55.8 °F 43.2 °F 63% 30.10 in 10.0 mi East 3.5 mph - N/A   Clear
5:55 AM 55.0 °F 43.2 °F 64% 30.10 in 10.0 mi East 4.6 mph - N/A   Clear
6:15 AM 54.7 °F 43.5 °F 66% 30.11 in 10.0 mi East 4.6 mph - N/A   Clear
6:35 AM 54.3 °F 43.7 °F 67% 30.11 in 10.0 mi East 3.5 mph - N/A   Clear
6:55 AM 54.0 °F 43.7 °F 68% 30.11 in 10.0 mi East 4.6 mph - N/A   Clear
7:15 AM 52.9 °F 43.7 °F 71% 30.11 in 10.0 mi East 5.8 mph - N/A   Clear
7:35 AM 53.1 °F 43.9 °F 71% 30.12 in 10.0 mi East 6.9 mph - N/A   Clear
7:55 AM 53.2 °F 44.6 °F 72% 30.12 in 10.0 mi East 4.6 mph - N/A   Clear
8:15 AM 54.7 °F 45.1 °F 70% 30.12 in 10.0 mi East 3.5 mph - N/A   Clear
8:35 AM 57.0 °F 45.9 °F 66% 30.13 in 10.0 mi East 5.8 mph - N/A   Clear
8:55 AM 59.2 °F 47.1 °F 64% 30.13 in 10.0 mi East 8.1 mph - N/A   Clear
9:15 AM 61.0 °F 47.7 °F 62% 30.13 in 10.0 mi ESE 8.1 mph - N/A   Clear
9:35 AM 63.3 °F 48.4 °F 58% 30.14 in 10.0 mi SE 8.1 mph - N/A   Clear
9:55 AM 65.5 °F 48.7 °F 55% 30.14 in 10.0 mi SE 6.9 mph - N/A   Clear
10:15 AM 67.1 °F 49.3 °F 53% 30.14 in 10.0 mi SSE 10.4 mph - N/A   Clear
10:35 AM 68.7 °F 49.5 °F 50% 30.14 in 10.0 mi SE 10.4 mph - N/A   Clear
10:55 AM 70.3 °F 49.5 °F 47% 30.14 in 10.0 mi SSE 10.4 mph - N/A   Clear
11:15 AM 71.6 °F 48.6 °F 44% 30.14 in 10.0 mi SE 12.7 mph - N/A   Clear
11:35 AM 72.5 °F 47.8 °F 42% 30.14 in 10.0 mi SSE 12.7 mph 19.6 mph N/A   Clear
11:55 AM 73.2 °F 47.1 °F 39% 30.13 in 10.0 mi SSE 10.4 mph - N/A   Clear
12:15 PM 73.9 °F 47.5 °F 39% 30.13 in 10.0 mi SSE 9.2 mph - N/A   Clear
12:35 PM 75.2 °F 47.3 °F 37% 30.11 in 10.0 mi SE 9.2 mph - N/A   Clear
12:55 PM 75.6 °F 47.1 °F 36% 30.11 in 10.0 mi SE 10.4 mph - N/A   Clear
1:15 PM 76.6 °F 46.2 °F 34% 30.10 in 10.0 mi SSE 6.9 mph - N/A   Clear
1:35 PM 76.8 °F 45.7 °F 33% 30.08 in 10.0 mi SE 6.9 mph - N/A   Clear
1:55 PM 77.2 °F 45.1 °F 32% 30.08 in 10.0 mi SE 9.2 mph - N/A   Clear
2:15 PM 77.7 °F 45.1 °F 31% 30.07 in 10.0 mi South 6.9 mph - N/A   Clear
2:35 PM 78.1 °F 44.8 °F 31% 30.06 in 10.0 mi East 6.9 mph - N/A   Clear
2:55 PM 78.8 °F 44.2 °F 29% 30.05 in 10.0 mi East 3.5 mph - N/A   Clear
3:15 PM 78.4 °F 43.7 °F 29% 30.04 in 10.0 mi South 4.6 mph - N/A   Clear
3:35 PM 79.2 °F 42.8 °F 27% 30.04 in 10.0 mi SE 3.5 mph - N/A   Clear
3:55 PM 79.2 °F 44.8 °F 30% 30.04 in 10.0 mi SSE 4.6 mph - N/A   Clear
4:15 PM 79.9 °F 44.4 °F 28% 30.03 in 10.0 mi ESE 8.1 mph - N/A   Clear
4:35 PM 79.7 °F 44.6 °F 29% 30.03 in 10.0 mi SE 5.8 mph - N/A   Clear
4:55 PM 79.7 °F 44.4 °F 29% 30.03 in 10.0 mi SE 4.6 mph - N/A   Clear
5:15 PM 79.3 °F 43.7 °F 28% 30.02 in 10.0 mi SE 9.2 mph - N/A   Clear
5:35 PM 78.8 °F 44.6 °F 30% 30.02 in 10.0 mi NNE 8.1 mph - N/A   Clear
5:55 PM 78.3 °F 45.0 °F 31% 30.02 in 10.0 mi SE 9.2 mph - N/A   Clear
6:15 PM 77.2 °F 45.0 °F 32% 30.02 in 10.0 mi ESE 9.2 mph - N/A   Clear
6:35 PM 75.9 °F 45.0 °F 33% 30.02 in 10.0 mi SE 6.9 mph - N/A   Clear
6:55 PM 73.9 °F 45.3 °F 36% 30.02 in 10.0 mi SE 4.6 mph - N/A   Clear
7:15 PM 72.0 °F 46.2 °F 40% 30.02 in 10.0 mi SE 4.6 mph - N/A   Clear
7:35 PM 70.9 °F 46.8 °F 42% 30.02 in 10.0 mi SE 6.9 mph - N/A   Clear
7:55 PM 70.5 °F 47.8 °F 44% 30.03 in 10.0 mi ESE 5.8 mph - N/A   Clear
8:15 PM 70.0 °F 49.1 °F 47% 30.03 in 10.0 mi ESE 8.1 mph - N/A   Clear
8:35 PM 68.9 °F 49.5 °F 50% 30.03 in 10.0 mi ESE 8.1 mph - N/A   Clear
8:55 PM 67.6 °F 50.0 °F 53% 30.03 in 10.0 mi ESE 8.1 mph - N/A   Clear
9:15 PM 67.6 °F 50.2 °F 54% 30.04 in 10.0 mi ESE 10.4 mph - N/A   Clear
9:35 PM 67.8 °F 50.2 °F 53% 30.04 in 10.0 mi ESE 10.4 mph - N/A   Clear
9:55 PM 67.5 °F 50.2 °F 54% 30.03 in 10.0 mi ESE 11.5 mph - N/A   Clear
10:15 PM 67.1 °F 50.0 °F 54% 30.03 in 10.0 mi ESE 12.7 mph - N/A   Clear
10:35 PM 66.6 °F 50.0 °F 55% 30.04 in 10.0 mi ESE 10.4 mph - N/A   Clear
10:55 PM 65.8 °F 50.4 °F 57% 30.04 in 10.0 mi ESE 9.2 mph - N/A   Clear
11:15 PM 65.3 °F 50.2 °F 58% 30.03 in 10.0 mi ESE 9.2 mph - N/A   Clear
11:35 PM 64.2 °F 50.4 °F 61% 30.03 in 10.0 mi ESE 10.4 mph - N/A   Clear
11:55 PM 63.7 °F 50.4 °F 62% 30.03 in 10.0 mi ESE 10.4 mph - N/A   Clear